Regional Weather Roundup
Issued by NWS Glasgow, MT

Home | Current Version | Previous Version | Text Only | Print | Product List | Glossary On
Versions: 1 2 3 4 5 6 7 8 9 10 11 12 13 14 15 16 17 18 19 20 21 22 23 24 25 26 27 28 29 30 31 32 33 34 35 36 37 38 39 40 41 42 43 44 45 46 47 48 49 50
000
ASUS45 KGGW 242015
RWRGGW
HOURLY WEATHER ROUNDUP FOR NORTHEAST MONTANA
NATIONAL WEATHER SERVICE GLASGOW MONTANA
200 PM MDT THU JUL 24 2014

NOTE: "FAIR" INDICATES FEW OR NO CLOUDS BELOW 12,000 FEET WITH NO
SIGNIFICANT WEATHER AND/OR OBSTRUCTIONS TO VISISBILITY.

NORTHEAST MONTANA


CITY           SKY/WX    TMP DP  RH WIND       PRES   REMARKS
GLASGOW        SUNNY     91  58  32 S13G22    29.68F
PLENTYWOOD       N/A     84  64  50 SE5         N/A
WOLF POINT     SUNNY     91  60  35 S8G16     29.69F
JORDAN           N/A     94  56  27 S12       29.69F
WINNETT          N/A     89  57  33 NW9         N/A
SIDNEY         PTSUNNY   84  66  54 SE17G23   29.72R
GLENDIVE       MOSUNNY   88  64  45 SE14      29.73F
MALTA            N/A     86  63  45 W5          N/A
SCOBEY           N/A     83  60  45 SE8       29.75F

FORT PECK REPORTS


CITY           SKY/WX    TMP DP  RH WIND       PRES   REMARKS
FORT PECK        N/A     83  61  47 S10         N/A
THE PINES        N/A     92  57  30 SE3         N/A

SOUTHEAST MONTANA


CITY           SKY/WX    TMP DP  RH WIND       PRES   REMARKS
BILLINGS       MOSUNNY   95  53  24 S9        29.77F
MILES CITY     SUNNY     94  60  32 S7        29.71F
BAKER          SUNNY     87  63  44 SE12      29.77F
LIVINGSTON     SUNNY     86  42  21 W22G31    29.87R

CENTRAL MONTANA


CITY           SKY/WX    TMP DP  RH WIND       PRES   REMARKS
HAVRE          PTSUNNY   82  51  34 NW20G29   29.80S
LEWISTOWN      SUNNY     82  54  37 NW9G18    29.88S
GREAT FALLS    CLOUDY    70  41  34 W25G41    29.94R
CUT BANK       MOSUNNY   66  35  31 W36G46    29.93F
HELENA         MOSUNNY   70  43  37 W31G40    30.00R
BUTTE          MOSUNNY   69  39  33 NW20G31   30.08R
BOZEMAN        MOSUNNY   82  45  27 NW17G24   29.93S

WESTERN MONTANA


CITY           SKY/WX    TMP DP  RH WIND       PRES   REMARKS
MISSOULA       SUNNY     68  36  30 W18G25    30.13S
KALISPELL      NOT AVBL

NORTH DAKOTA


CITY           SKY/WX    TMP DP  RH WIND       PRES   REMARKS
WILLISTON      CLOUDY    83  64  52 SE18G31   29.69F
DICKINSON      PTSUNNY   79  66  64 E12       29.79S
MINOT          SUNNY     80  64  58 SE14      29.78S
BISMARCK       CLOUDY    79  63  57 SE21G28   29.81F

SOUTHERN SASKATCHEWAN


CITY           SKY/WX    TMP DP  RH WIND       PRES   REMARKS
REGINA         PTSUNNY   79  63  57 S12G18    29.75F
MOOSE JAW      LGT RAIN  75  64  69 S2        29.74S
ESTEVAN        MOSUNNY   81  66  61 SE7       29.79F
SWIFT CURRENT  LGT RAIN  72  64  78 S7        29.76R



USA.gov is the U.S. government's official web portal to all federal, state and local government web resources and services.